This is the latest recevied weather packets stored in our database for station/object SV9TNF-4. If no packets are shown the sender has not sent any weather packets the latest 10 day(s).
| Time | Temp. | Humidity | Pressure | Rain* | Wind** | Luminosity | Snow |
|---|---|---|---|---|---|---|---|
| 1777717546 | 16.67° C | 56% | 1014.2 hPa | 0 mm | 33.98 m/s, 9° | - | - |
| 1777717246 | 16.67° C | 56% | 1014.2 hPa | 0 mm | 33.98 m/s, 9° | - | - |
| 1777716345 | 16.67° C | 51% | 1014.2 hPa | 0 mm | 53.2 m/s, 47° | - | - |
| 1777716045 | 16.67° C | 51% | 1014.2 hPa | 0 mm | 53.2 m/s, 47° | - | - |
| 1777715745 | 16.67° C | 51% | 1014.2 hPa | 0 mm | 53.2 m/s, 47° | - | - |
| 1777715445 | 16.67° C | 51% | 1014.2 hPa | 0 mm | 53.2 m/s, 47° | - | - |
| 1777715145 | 16.67° C | 51% | 1014.2 hPa | 0 mm | 53.2 m/s, 47° | - | - |
| 1777714845 | 16.67° C | 51% | 1014.2 hPa | 0 mm | 43.36 m/s, 65° | - | - |
| 1777714245 | 16.67° C | 51% | 1014.2 hPa | 0 mm | 43.36 m/s, 65° | - | - |
| 1777713044 | 15.56° C | 56% | 1014.2 hPa | 0 mm | 38.45 m/s, 6° | - | - |
| 1777712744 | 15.56° C | 56% | 1014.2 hPa | 0 mm | 38.45 m/s, 6° | - | - |
| 1777712453 | 15.56° C | 56% | 1014.2 hPa | 0 mm | 38.45 m/s, 6° | - | - |
| 1777712144 | 15.56° C | 56% | 1014.2 hPa | 0 mm | 38.45 m/s, 6° | - | - |
| 1777711844 | 15.56° C | 56% | 1014.2 hPa | 0 mm | 38.45 m/s, 6° | - | - |
| 1777711544 | 15.56° C | 56% | 1014.2 hPa | 0 mm | 38.45 m/s, 6° | - | - |
| 1777711244 | 15.56° C | 56% | 1014.2 hPa | 0 mm | 38.45 m/s, 6° | - | - |
| 1777710944 | 15.56° C | 56% | 1014.2 hPa | 0 mm | 38.45 m/s, 6° | - | - |
| 1777710644 | 15.56° C | 56% | 1014.2 hPa | 0 mm | 38.45 m/s, 6° | - | - |
| 1777710343 | 15.56° C | 56% | 1014.2 hPa | 0 mm | 38.45 m/s, 6° | - | - |
| 1777710043 | 15.56° C | 56% | 1014.2 hPa | 0 mm | 38.45 m/s, 6° | - | - |
| 1777709743 | 15.56° C | 56% | 1014.2 hPa | 0 mm | 38.45 m/s, 6° | - | - |
| 1777709443 | 15.56° C | 57% | 1014.2 hPa | 0 mm | 56.33 m/s, 8° | - | - |
| 1777709143 | 15.56° C | 57% | 1014.2 hPa | 0 mm | 56.33 m/s, 8° | - | - |
| 1777708843 | 15.56° C | 58% | 1014.2 hPa | 0 mm | 38.45 m/s, 25° | - | - |
| 1777708543 | 15.56° C | 58% | 1014.2 hPa | 0 mm | 38.45 m/s, 25° | - | - |
* Rain latest hour (hover to see other rain measurements)
** Current wind speed in m/s (hover to see current wind gust speed)